GW0822 Weather Reports


time (UTC)temp
C
wind
direction
speed
KPH
gust
KPH
rain 1hr
cm
rain 24hr
cm
rain mn
cm
humidity
%
barometer
mb
20260507084148 8 316 8.0 11.3 0.18 0.13 0.13 98 1009.0
20260507083644 8 325 6.4 11.3 0.05 0.10 0.10 98 1009.0
20260507083141 8 294 6.4 11.3 0.05 0.10 0.10 98 1009.3
20260507082637 8 319 14.5 14.5 0.13 0.10 0.10 98 1009.3
20260507082134 8 356 4.8 11.3 0.05 0.10 0.10 98 1009.2
20260507081631 8 292 4.8 8.0 0.00 0.08 0.08 98 1009.1
20260507081127 8 62 6.4 8.0 0.00 0.08 0.08 98 1009.2
20260507080623 8 285 6.4 6.4 0.00 0.08 0.08 98 1009.3
20260507080120 8 246 0.0 4.8 0.05 0.08 0.08 98 1009.3
20260507075620 8 298 3.2 6.4 0.05 0.08 0.08 98 1009.1
20260507075116 8 282 0.0 4.8 0.05 0.08 0.08 98 1009.1
20260507074613 8 296 0.0 6.4 0.05 0.08 0.08 98 1008.8
20260507074112 8 286 0.0 4.8 0.00 0.05 0.05 98 1009.0
20260507073608 8 212 0.0 8.0 0.05 0.05 0.05 97 1008.9
20260507073104 8 326 3.2 8.0 0.05 0.05 0.05 97 1008.9
20260507072602 8 324 4.8 8.0 0.00 0.05 0.05 97 1009.1
20260507072059 8 306 0.0 8.0 0.00 0.05 0.05 97 1008.8
20260507071556 9 275 0.0 8.0 0.00 0.05 0.05 97 1009.0
20260507071052 9 60 0.0 8.0 0.13 0.05 0.05 96 1008.8
20260507070549 9 316 0.0 6.4 0.18 0.05 0.05 96 1008.9
20260507070046 9 299 0.0 8.0 0.13 0.03 0.03 95 1008.8
20260507065543 9 288 8.0 11.3 0.00 0.00 0.00 95 1008.5
20260507065040 9 299 8.0 14.5 0.00 0.00 0.00 95 1008.4
20260507064538 9 320 14.5 16.1 0.00 0.00 0.00 95 1008.5
20260507064036 9 316 11.3 11.3 0.00 0.00 0.00 94 1008.1
20260507063533 9 311 8.0 11.3 0.00 0.00 0.00 94 1008.1
20260507063030 9 356 0.0 9.7 0.00 0.00 0.00 94 1008.0
20260507062527 9 268 0.0 8.0 0.00 0.00 0.00 94 1008.0
20260507062025 9 353 0.0 8.0 0.00 0.00 0.00 94 1007.9
20260507061522 9 37 3.2 6.4 0.00 0.00 0.00 94 1008.2
20260507061020 9 318 3.2 8.0 0.00 0.00 0.00 94 1008.4
20260507060518 9 293 4.8 6.4 0.00 0.00 0.00 94 1008.3
20260507060014 9 321 9.7 9.7 0.00 0.00 0.00 94 1008.6
20260507055509 10 297 9.7 11.3 0.00 0.00 0.00 95 1008.6
20260507055006 10 314 8.0 9.7 0.00 0.00 0.00 94 1008.5
20260507054501 10 314 4.8 8.0 0.00 0.00 0.00 94 1008.6
20260507053959 10 350 6.4 8.0 0.00 0.00 0.00 94 1008.5
20260507053457 9 327 0.0 6.4 0.00 0.00 0.00 94 1008.6
20260507052955 10 319 0.0 11.3 0.00 0.00 0.00 94 1008.4
20260507052452 10 318 9.7 9.7 0.00 0.00 0.00 95 1008.8
20260507051949 10 330 3.2 9.7 0.00 0.00 0.00 95 1008.7
20260507051447 10 350 0.0 6.4 0.00 0.00 0.00 95 1008.8
20260507050943 10 311 9.7 9.7 0.00 0.00 0.00 96 1008.8
20260507050440 10 306 8.0 11.3 0.00 0.00 0.00 96 1009.0
20260507045937 10 286 0.0 9.7 0.00 0.00 0.00 96 1008.9
20260507045433 10 337 0.0 12.9 0.00 0.00 0.00 97 1008.7
20260507044930 10 276 11.3 12.9 0.00 0.00 0.00 97 1008.6
20260507044427 10 307 8.0 8.0 0.00 0.00 0.00 97 1008.7
20260507043923 10 318 8.0 11.3 0.00 0.00 0.00 97 1008.6
20260507043419 10 311 6.4 9.7 0.00 0.00 0.00 97 1008.7
20260507042916 10 332 6.4 9.7 0.00 0.00 0.00 97 1008.6
20260507042413 10 320 6.4 11.3 0.05 0.00 0.00 97 1008.8
20260507041908 10 297 6.4 14.5 0.05 0.00 0.00 97 1008.9
20260507041405 10 314 11.3 11.3 0.00 0.00 0.00 97 1008.7
20260507040903 10 300 11.3 16.1 0.00 0.00 0.00 97 1008.8
20260507040358 11 289 8.0 14.5 0.00 0.00 0.00 97 1008.7
20260507035854 11 338 9.7 19.3 0.00 0.56 0.56 97 1008.6
20260507035350 11 298 14.5 16.1 0.00 0.56 0.56 97 1008.7
20260507034848 11 286 9.7 19.3 0.00 0.56 0.56 98 1008.9
20260507034345 11 310 20.9 20.9 0.00 0.56 0.56 98 1008.8
20260507033843 11 320 12.9 14.5 0.00 0.56 0.56 98 1008.9
20260507033340 12 309 4.8 14.5 0.00 0.56 0.56 98 1008.9
20260507032837 12 330 6.4 11.3 0.00 0.56 0.56 98 1008.7
20260507032333 12 308 8.0 9.7 0.00 0.56 0.56 98 1008.9
20260507031830 12 308 4.8 8.0 0.00 0.56 0.56 98 1008.5
20260507031327 12 265 0.0 8.0 0.00 0.56 0.56 98 1008.6
20260507030823 12 123 3.2 16.1 0.05 0.56 0.56 98 1008.3
20260507030321 12 306 4.8 11.3 0.05 0.56 0.56 98 1008.5
20260507025818 12 318 6.4 14.5 0.00 0.56 0.56 98 1008.5
20260507025315 12 304 11.3 14.5 0.00 0.56 0.56 98 1008.3
20260507024813 12 288 8.0 11.3 0.00 0.56 0.56 99 1008.4
20260507024310 13 305 9.7 19.3 0.00 0.56 0.56 99 1008.3
20260507023806 13 286 6.4 9.7 0.00 0.56 0.56 99 1008.3
20260507023302 13 313 8.0 9.7 0.00 0.56 0.56 99 1008.4
20260507022800 13 311 9.7 17.7 0.00 0.56 0.56 99 1008.3
20260507022256 13 299 8.0 14.5 0.00 0.56 0.56 99 1008.3
20260507021752 14 269 0.0 14.5 0.00 0.56 0.56 99 1007.9
20260507021248 13 268 4.8 8.0 0.00 0.56 0.56 99 1008.0
20260507020746 13 208 6.4 8.0 0.00 0.56 0.56 99 1007.7
20260507020242 13 245 6.4 8.0 0.00 0.56 0.56 99 1007.7
20260507015740 13 242 3.2 6.4 0.00 0.56 0.56 99 1007.8
20260507015237 13 246 6.4 8.0 0.00 0.56 0.56 99 1007.8
20260507014734 13 237 0.0 14.5 0.00 0.56 0.56 99 1008.0
20260507014230 13 253 6.4 12.9 0.00 0.56 0.56 99 1007.8
20260507013727 13 221 0.0 11.3 0.00 0.56 0.56 99 1007.9
20260507013224 13 271 0.0 8.0 0.00 0.56 0.56 99 1008.0
20260507012721 13 262 8.0 12.9 0.00 0.56 0.56 99 1007.7
20260507012217 13 249 9.7 9.7 0.00 0.56 0.56 99 1007.9
20260507011715 13 277 11.3 11.3 0.00 0.56 0.56 99 1007.9
20260507011211 13 213 8.0 16.1 0.00 0.56 0.56 99 1007.9
20260507010711 13 260 8.0 22.5 0.00 0.56 0.56 99 1007.3
20260507010207 13 192 0.0 11.3 0.00 0.56 0.56 99 1007.5
20260507005705 13 241 6.4 17.7 0.00 0.56 0.56 99 1007.8
20260507005201 13 261 3.2 11.3 0.00 0.56 0.56 99 1007.6
20260507004657 13 235 4.8 9.7 0.00 0.56 0.56 99 1007.9
20260507004155 13 216 6.4 8.0 0.00 0.56 0.56 99 1008.0
20260507003651 13 261 9.7 22.5 0.00 0.56 0.56 99 1007.9
20260507003151 13 240 8.0 12.9 0.05 0.56 0.56 99 1007.8
20260507002648 13 223 4.8 17.7 0.05 0.56 0.56 99 1007.9
20260507002144 13 293 9.7 12.9 0.00 0.53 0.53 99 1007.9
20260507001641 13 222 6.4 12.9 0.00 0.53 0.53 99 1007.9
20260507001138 13 262 4.8 9.7 0.00 0.53 0.53 99 1007.9
20260507000634 13 250 6.4 8.0 0.00 0.53 0.53 99 1007.7
20260507000130 13 259 16.1 16.1 0.00 0.53 0.53 98 1007.7
20260506235628 13 256 9.7 12.9 0.00 0.53 0.53 98 1007.5
20260506235127 13 274 8.0 11.3 0.00 0.53 0.53 98 1007.8
20260506234625 13 241 0.0 14.5 0.00 0.53 0.53 98 1007.7
20260506234122 13 268 3.2 14.5 0.00 0.53 0.53 98 1007.5
20260506233619 13 211 14.5 14.5 0.00 0.53 0.53 98 1007.3
20260506233116 13 236 8.0 16.1 0.00 0.53 0.53 98 1007.6
20260506232612 13 242 11.3 14.5 0.00 0.53 0.53 98 1007.5
20260506232108 13 267 9.7 11.3 0.00 0.53 0.53 98 1007.1
20260506231605 13 129 9.7 17.7 0.00 0.53 0.53 98 1007.5
20260506231103 13 225 11.3 14.5 0.00 0.53 0.53 98 1007.3
20260506230600 13 229 11.3 14.5 0.00 0.53 0.53 98 1007.5
20260506230057 13 208 11.3 14.5 0.00 0.53 0.53 98 1007.3
20260506225553 13 234 6.4 14.5 0.05 0.53 0.53 98 1007.0
20260506225050 13 276 6.4 17.7 0.13 0.53 0.53 98 1006.9
20260506224547 13 186 0.0 12.9 0.05 0.53 0.53 98 1007.0
20260506224043 13 286 8.0 19.3 0.00 0.51 0.51 98 1007.2
20260506223539 13 231 9.7 14.5 0.05 0.51 0.51 98 1007.1
20260506223036 13 241 9.7 20.9 0.18 0.51 0.51 98 1007.1
20260506222533 13 290 3.2 9.7 0.30 0.51 0.51 98 1007.1
20260506222029 13 242 9.7 12.9 0.36 0.48 0.48 98 1007.2
20260506221527 13 278 9.7 12.9 0.18 0.46 0.46 98 1007.3
20260506221025 13 275 9.7 19.3 0.05 0.43 0.43 98 1007.5
20260506220520 13 280 8.0 20.9 0.05 0.43 0.43 98 1007.6
20260506220016 13 238 8.0 14.5 0.00 0.43 0.43 98 1007.1
20260506215513 13 231 12.9 12.9 0.05 0.43 0.43 98 1007.3
20260506215009 13 260 16.1 16.1 0.05 0.43 0.43 98 1007.3
20260506214506 13 269 0.0 9.7 0.00 0.41 0.41 98 1007.5
20260506214003 13 276 12.9 17.7 0.00 0.41 0.41 97 1007.6
20260506213501 13 223 9.7 17.7 0.05 0.41 0.41 97 1007.6
20260506212958 13 195 8.0 22.5 0.05 0.41 0.41 97 1007.7
20260506212454 13 257 0.0 11.3 0.05 0.41 0.41 97 1007.7
20260506211949 13 252 8.0 16.1 0.18 0.41 0.41 97 1007.6
20260506211445 13 242 4.8 17.7 0.13 0.38 0.38 97 1007.8
20260506210943 13 187 8.0 9.7 0.13 0.38 0.38 97 1007.8
20260506210439 13 289 4.8 19.3 0.18 0.36 0.36 97 1007.9
20260506205936 13 138 3.2 17.7 0.18 0.36 0.36 97 1008.1
20260506205432 13 182 8.0 17.7 0.05 0.33 0.33 97 1008.0
20260506204928 14 135 11.3 11.3 0.05 0.33 0.33 97 1007.9
20260506204427 13 287 4.8 12.9 0.05 0.33 0.33 97 1008.0
20260506203924 14 193 0.0 9.7 0.00 0.30 0.30 97 1008.2
20260506203420 13 241 3.2 11.3 0.00 0.30 0.30 97 1008.0
20260506202918 13 195 0.0 11.3 0.00 0.30 0.30 97 1008.1
20260506202415 13 258 9.7 9.7 0.00 0.30 0.30 97 1008.1
20260506201911 13 137 8.0 14.5 0.00 0.30 0.30 96 1008.3
20260506201409 13 180 11.3 12.9 0.00 0.30 0.30 96 1008.1
20260506200905 13 179 0.0 22.5 0.00 0.30 0.30 96 1008.2
20260506200401 13 235 3.2 16.1 0.05 0.30 0.30 96 1008.3
20260506195858 13 261 6.4 25.7 0.05 0.30 0.30 96 1008.2
20260506195355 13 275 11.3 16.1 0.00 0.30 0.30 96 1008.6
20260506194851 13 116 0.0 16.1 0.00 0.30 0.30 96 1008.5
20260506194349 13 74 6.4 16.1 0.00 0.30 0.30 96 1008.4
20260506193846 13 223 11.3 24.1 0.00 0.30 0.30 96 1008.7
20260506193343 13 243 3.2 17.7 0.00 0.30 0.30 96 1008.4
20260506192839 13 264 8.0 33.8 0.05 0.30 0.30 96 1008.5
20260506192336 13 89 0.0 20.9 0.05 0.30 0.30 96 1008.4
20260506191833 13 205 8.0 32.2 0.05 0.28 0.28 96 1008.7
20260506191329 13 175 11.3 19.3 0.13 0.28 0.28 96 1008.6
20260506190826 13 209 11.3 20.9 0.13 0.28 0.28 96 1008.9
20260506190322 13 214 9.7 25.7 0.13 0.28 0.28 95 1008.8
20260506185820 13 227 8.0 30.6 0.18 0.25 0.25 95 1008.8
20260506185316 13 223 8.0 29.0 0.18 0.25 0.25 95 1008.7
20260506184814 14 282 12.9 30.6 0.13 0.23 0.23 95 1008.7
20260506184311 14 172 12.9 30.6 0.13 0.23 0.23 95 1008.9
20260506183808 14 190 11.3 14.5 0.13 0.20 0.20 95 1008.7
20260506183303 14 142 6.4 19.3 0.18 0.20 0.20 95 1008.6
20260506182800 15 127 4.8 14.5 0.23 0.18 0.18 95 1008.6
20260506182257 15 192 3.2 16.1 0.30 0.18 0.18 94 1008.9
20260506181755 15 185 3.2 11.3 0.30 0.15 0.15 94 1009.2
20260506181253 15 165 0.0 12.9 0.23 0.10 0.10 93 1009.2
20260506180750 15 150 3.2 17.7 0.18 0.08 0.08 92 1009.2
20260506180245 15 247 4.8 9.7 0.18 0.08 0.08 91 1009.6
20260506175742 15 212 17.7 17.7 0.13 0.05 0.05 90 1009.6
20260506175239 15 238 9.7 24.1 0.13 0.05 0.05 89 1009.7
20260506174737 15 191 9.7 9.7 0.13 0.03 0.03 88 1009.4
20260506174233 16 269 6.4 19.3 0.13 0.03 0.03 86 1009.7
20260506173732 16 232 12.9 20.9 0.05 0.00 0.00 84 1009.8
20260506173228 17 261 12.9 12.9 0.00 0.00 0.00 81 1010.0
20260506172725 17 2 8.0 29.0 0.00 0.00 0.00 80 1009.9
20260506172221 18 269 0.0 11.3 0.00 0.00 0.00 76 1009.7
20260506171719 18 190 9.7 14.5 0.00 0.00 0.00 72 1009.7
20260506171216 18 227 12.9 12.9 0.00 0.00 0.00 71 1009.9
20260506170713 19 283 8.0 27.4 0.00 0.00 0.00 68 1009.6
20260506170210 19 267 27.4 30.6 0.00 0.00 0.00 67 1009.2
20260506165709 19 283 20.9 30.6 0.00 0.00 0.00 67 1009.4
20260506165205 19 292 9.7 27.4 0.00 0.00 0.00 67 1009.3
20260506164702 20 34 3.2 11.3 0.00 0.00 0.00 66 1009.5
20260506164159 20 282 17.7 20.9 0.00 0.00 0.00 66 1009.4
20260506163655 20 247 17.7 20.9 0.00 0.00 0.00 66 1009.5
20260506163151 20 259 22.5 33.8 0.00 0.00 0.00 65 1009.7
20260506162647 20 233 11.3 27.4 0.00 0.00 0.00 64 1009.7
20260506162144 20 239 9.7 33.8 0.00 0.00 0.00 64 1009.7
20260506161642 20 255 11.3 19.3 0.00 0.00 0.00 64 1009.9
20260506161138 20 351 22.5 37.0 0.00 0.00 0.00 64 1009.8
20260506160636 20 318 16.1 37.0 0.00 0.00 0.00 64 1009.7
20260506160133 20 300 16.1 19.3 0.00 0.00 0.00 64 1010.0
20260506155632 20 234 17.7 19.3 0.00 0.00 0.00 64 1010.0
20260506155128 20 274 11.3 20.9 0.00 0.00 0.00 64 1010.1
20260506153230 20 214 11.3 35.4 0.00 0.00 0.00 64 1010.0
20260506152727 20 308 16.1 20.9 0.00 0.00 0.00 63 1010.2
20260506152224 20 275 4.8 19.3 0.00 0.00 0.00 65 1010.0
20260506151724 20 278 11.3 11.3 0.00 0.00 0.00 65 1010.5
20260506151220 20 277 11.3 14.5 0.00 0.00 0.00 67 1010.5
20260506150716 19 221 11.3 30.6 0.00 0.00 0.00 67 1010.3
20260506150213 19 260 8.0 14.5 0.00 0.00 0.00 68 1010.6
20260506145710 19 311 8.0 19.3 0.00 0.00 0.00 68 1010.8
20260506145207 19 54 6.4 46.7 0.00 0.00 0.00 67 1010.2
20260506144704 19 244 22.5 37.0 0.00 0.00 0.00 68 1010.9
20260506144201 19 304 11.3 22.5 0.00 0.00 0.00 68 1010.7
20260506143659 18 311 9.7 20.9 0.00 0.00 0.00 69 1010.9
20260506143156 18 257 6.4 27.4 0.00 0.00 0.00 70 1010.8
20260506142655 18 272 14.5 29.0 0.00 0.00 0.00 70 1010.9
20260506142152 18 252 6.4 14.5 0.00 0.00 0.00 70 1010.9
20260506141650 18 286 8.0 20.9 0.00 0.00 0.00 71 1010.9
20260506141148 18 29 6.4 14.5 0.00 0.00 0.00 71 1010.8
20260506140645 18 265 6.4 16.1 0.00 0.00 0.00 71 1010.8
20260506140142 18 273 11.3 12.9 0.00 0.00 0.00 72 1010.7
20260506135639 18 285 4.8 19.3 0.00 0.00 0.00 72 1010.6
20260506135135 18 269 9.7 17.7 0.00 0.00 0.00 72 1010.5
20260506134632 18 276 6.4 16.1 0.00 0.00 0.00 73 1010.3
20260506134127 18 272 0.0 32.2 0.00 0.00 0.00 74 1010.7
20260506133625 18 242 16.1 25.7 0.00 0.00 0.00 73 1010.7
20260506133122 18 274 14.5 14.5 0.00 0.00 0.00 74 1010.6
20260506132619 17 237 8.0 14.5 0.00 0.00 0.00 75 1010.8
20260506132116 17 282 4.8 20.9 0.00 0.00 0.00 76 1010.8
20260506131614 17 284 9.7 11.3 0.00 0.00 0.00 77 1010.8
20260506131110 17 223 8.0 25.7 0.00 0.00 0.00 78 1010.7
20260506130607 17 251 8.0 19.3 0.00 0.00 0.00 78 1011.2
20260506130105 17 230 11.3 32.2 0.00 0.00 0.00 79 1011.3
20260506125603 16 275 11.3 16.1 0.00 0.00 0.00 80 1011.2
20260506125100 16 250 11.3 25.7 0.00 0.00 0.00 79 1011.2
20260506124557 16 268 8.0 12.9 0.00 0.00 0.00 80 1011.3
20260506124055 16 246 16.1 25.7 0.00 0.00 0.00 82 1011.2
20260506123553 16 250 9.7 24.1 0.00 0.00 0.00 82 1011.3
20260506123051 16 180 4.8 14.5 0.00 0.00 0.00 82 1011.1
20260506122547 16 255 3.2 12.9 0.00 0.00 0.00 82 1011.3
20260506122046 16 197 14.5 19.3 0.00 0.00 0.00 81 1011.5
20260506121543 16 218 12.9 24.1 0.00 0.00 0.00 81 1011.3
20260506121038 16 231 11.3 19.3 0.00 0.00 0.00 81 1011.4
20260506120537 15 241 8.0 16.1 0.00 0.00 0.00 83 1011.4
20260506120034 15 198 9.7 17.7 0.00 0.00 0.00 84 1011.6
20260506115532 15 249 14.5 16.1 0.00 0.00 0.00 83 1011.3
20260506115030 15 225 6.4 19.3 0.00 0.00 0.00 83 1011.4
20260506114527 15 174 6.4 19.3 0.00 0.00 0.00 83 1011.2
20260506114026 15 254 3.2 29.0 0.00 0.00 0.00 84 1011.1
20260506113523 15 180 22.5 24.1 0.00 0.00 0.00 85 1011.2
20260506113020 15 252 6.4 17.7 0.00 0.00 0.00 85 1011.4
20260506112516 15 305 11.3 11.3 0.00 0.00 0.00 86 1011.7
20260506112014 14 325 4.8 17.7 0.00 0.00 0.00 87 1011.4
20260506111512 14 233 4.8 19.3 0.00 0.00 0.00 87 1011.3
20260506111009 14 321 8.0 11.3 0.00 0.00 0.00 87 1011.5
20260506110507 14 241 9.7 27.4 0.00 0.00 0.00 87 1011.7
20260506110004 14 231 9.7 17.7 0.00 0.00 0.00 86 1012.0
20260506105459 14 212 8.0 17.7 0.00 0.00 0.00 86 1012.1
20260506104957 14 222 9.7 27.4 0.00 0.00 0.00 87 1011.5
20260506104455 14 245 8.0 11.3 0.00 0.00 0.00 87 1011.5
20260506103953 13 225 22.5 40.2 0.00 0.00 0.00 87 1011.5
20260506103449 13 242 0.0 12.9 0.00 0.00 0.00 88 1011.5
20260506102946 13 269 4.8 19.3 0.00 0.00 0.00 88 1011.3
20260506102444 13 207 11.3 22.5 0.00 0.00 0.00 88 1011.5
20260506101941 13 232 9.7 22.5 0.00 0.00 0.00 88 1011.3
20260506101438 13 293 11.3 32.2 0.00 0.00 0.00 87 1011.4
20260506100935 13 290 8.0 37.0 0.00 0.00 0.00 87 1011.3
20260506100433 13 247 11.3 38.6 0.00 0.00 0.00 87 1011.3
20260506095931 13 227 20.9 29.0 0.00 0.00 0.00 86 1011.4
20260506095429 13 299 9.7 16.1 0.00 0.00 0.00 87 1011.3
20260506094925 13 166 12.9 17.7 0.00 0.00 0.00 87 1011.2
20260506094424 13 278 6.4 19.3 0.00 0.00 0.00 86 1011.0
20260506093921 13 85 20.9 20.9 0.00 0.00 0.00 86 1011.2
20260506093419 13 268 6.4 17.7 0.00 0.00 0.00 86 1011.3
20260506092917 13 185 4.8 12.9 0.00 0.00 0.00 86 1011.3
20260506092415 14 184 8.0 24.1 0.00 0.00 0.00 85 1011.6
20260506091911 14 8 0.0 20.9 0.00 0.00 0.00 85 1011.1
20260506091409 14 256 8.0 17.7 0.00 0.00 0.00 85 1011.0
20260506090906 14 241 6.4 25.7 0.00 0.00 0.00 84 1011.0
20260506090403 14 211 11.3 17.7 0.00 0.00 0.00 85 1011.4
20260506085900 14 228 16.1 16.1 0.00 0.00 0.00 84 1011.2
20260506085356 14 207 17.7 17.7 0.00 0.00 0.00 84 1011.4
20260506084853 14 220 9.7 29.0 0.00 0.00 0.00 84 1011.4